Starlink 32582

operational
NORAD ID: 62033 Int'l Des: 2024-216 Owner: SPXS Country: US Constellation: starlink
LEOCIRCULAR

Starlink 32582について

説明を読み込み中...

リアルタイム位置

3D地球を読み込み中...

次回通過

高度履歴

Altitude vs Time

uPlot chart will show altitude changes over time

軌道要素

1 62033U 24216B 25260.01676361 .00020863 00000-0 76618-3 0 9994
2 62033 43.0006 164.1412 0000934 283.9650 76.1098 15.27551205 47237
Epoch: Sep 17, 2025 • Age: 11 hours

現在のステータス

高度 486.0 km
速度 7.62 km/s
衛星直下点 -16.57°S, 22.76°W
打ち上げ日 Nov 21, 2024
運用期間 0.8 years
タイプ internet

技術仕様

分類 Payload
質量 730.00 kg
乾燥質量 700.00 kg
総質量 730.00 kg
長さ 0.30 m
直径 4.10 m
スパン 29.00 m
形状 Box + pan
製造者 SPXS
バスタイプ Starlink V2M
フェーズステータス In Orbit
所有者/国 SPXS/US

大規模コンステレーション

Loading constellations...